This demonstration page uses our WeatherBlox Daily Observations layout. Learn more.

39.29038, -76.61219

Hourly Observations for January 7, 2019

Temp ( °F °C ) Dew Point ( °F °C ) Humidity (%) Winds ( mph kmh ) Pressure ( in mb ) Visibility ( mi km ) Precip ( " mm )
12:54 am 00:54 undefined 40 4.4 21 -6.1 47 47 undefined N/A 30.33 1027 N/A 0 0
1:54 am 01:54 undefined 39 3.9 21 -6.1 48 48 undefined N/A 30.36 1028 N/A 0 0
2:54 am 02:54 undefined 37 2.8 22 -5.6 54 54 undefined N/A 30.39 1029 N/A 0 0
3:54 am 03:54 undefined 36 2.2 21 -6.1 55 55 undefined N/A 30.39 1029 N/A 0 0
4:54 am 04:54 undefined 35 1.7 20 -6.7 54 54 undefined N/A 30.42 1030 N/A 0 0
5:54 am 05:54 undefined 34 1.1 18 -7.8 52 52 undefined N/A 30.45 1031 N/A 0 0
6:54 am 06:54 undefined 34 1.1 18 -7.8 52 52 undefined N/A 30.45 1031 N/A 0 0
7:54 am 07:54 undefined 34 1.1 18 -7.8 52 52 undefined N/A 30.48 1032 N/A 0 0
8:54 am 08:54 undefined 34 1.1 18 -7.8 52 52 undefined N/A 30.5 1033 N/A 0 0
9:54 am 09:54 undefined 34 1.1 17 -8.3 50 50 undefined N/A 30.5 1033 N/A 0 0
10:54 am 10:54 undefined 36 2.2 14 -10 40 40 undefined N/A 30.53 1034 N/A 0 0
11:54 am 11:54 undefined 36 2.2 13 -10.6 39 39 undefined N/A 30.45 1031 N/A 0 0
12:54 pm 12:54 undefined 36 2.2 15 -9.4 42 42 undefined N/A 30.42 1030 N/A 0 0
1:54 pm 13:54 undefined 35 1.7 14 -10 42 42 undefined N/A 30.42 1030 N/A 0 0
2:54 pm 14:54 undefined 35 1.7 15 -9.4 44 44 undefined N/A 30.42 1030 N/A 0 0
3:54 pm 15:54 undefined 35 1.7 17 -8.3 48 48 undefined N/A 30.39 1029 N/A 0 0
4:54 pm 16:54 undefined 36 2.2 19 -7.2 50 50 undefined N/A 30.39 1029 N/A 0 0
5:54 pm 17:54 undefined 36 2.2 20 -6.7 52 52 undefined N/A 30.36 1028 N/A 0 0
6:54 pm 18:54 undefined 37 2.8 21 -6.1 52 52 undefined N/A 30.33 1027 N/A 0 0
7:54 pm 19:54 undefined 37 2.8 22 -5.6 54 54 undefined N/A 30.33 1027 N/A 0 0
8:54 pm 20:54 undefined 38 3.3 25 -3.9 60 60 undefined N/A 30.3 1026 N/A 0 0
9:54 pm 21:54 undefined 38 3.3 25 -3.9 60 60 undefined N/A 30.27 1025 N/A 0 0
10:54 pm 22:54 undefined 38 3.3 27 -2.8 65 65 undefined N/A 30.24 1024 N/A 0 0
11:54 pm 23:54 undefined 38 3.3 31 -0.6 76 76 undefined N/A 30.18 1022 N/A 0 0

Powered by AerisWeather